Corlu, Turkey

11:22 PM +03 on April 23, 2017 (GMT +0300)
Corlu Air Base

Weather History for LTBU - December, 2012

Change the Weather History Date:

Sunday, December 2, 2012

  Actual Average (LTBA) Record (LTBA)
Temperature  
Mean Temperature 54 °F -  
Max Temperature 60 °F 54 °F 69 °F (2010)
Min Temperature 48 °F 45 °F 32 °F (2016)
Degree Days  
Heating Degree Days 11    
Growing Degree Days 4 (Base 50)    
Moisture  
Dew Point 54 °F    
Average Humidity 95    
Maximum Humidity 100    
Minimum Humidity 77    
Precipitation  
Precipitation 0.00 in - - ()
Sea Level Pressure  
Sea Level Pressure 29.89 in    
Wind  
Wind Speed 6 mph ()    
Max Wind Speed 12 mph    
Max Gust Speed -    
Visibility 4.2 miles    
Events Fog , Rain    
Averages and records for this station are not official NWS values.
T = Trace of Precipitation, MM = Missing Value Source: Averaged Metar Reports

Daily Weather History Graph

Daily Weather History Graph

Search for Another Location

Airport or City:

Trip Planner

Search our weather history database for the weather conditions in past years. The results will help you decide how hot, cold, wet, or windy it might be!

Date:

Astronomy

Dec. 02, 2012 Rise Set
Actual Time 7:15 AM EET 4:40 PM EET
Civil Twilight 6:44 AM EET 5:10 PM EET
Nautical Twilight 6:10 AM EET 5:45 PM EET
Astronomical Twilight 5:37 AM EET 6:18 PM EET
Moon 8:09 PM EET (12/2) 9:52 AM EET (12/2)
Length of Visible Light 10h 26m
Length of Day
9h 24m
Waning Gibbous, 87% of the Moon is Illuminated
Dec 2
Waning Gibbous
Dec 6
Last Quarter
Dec 13
New
Dec 20
First Quarter
Dec 28
Full

Hourly Weather History & Observations

Time (EET) Temp. Dew Point Humidity Pressure Visibility Wind Dir Wind Speed Gust Speed Precip Events Conditions
12:20 AM 53.6 °F 53.6 °F 100% 29.95 in - SSW 9.2 mph - N/A   Clear
12:50 AM 51.8 °F 50.0 °F 94% 29.95 in - WSW 4.6 mph - N/A   Clear
1:20 AM 53.6 °F 53.6 °F 100% 29.98 in - South 6.9 mph - N/A   Clear
1:50 AM 51.8 °F 51.8 °F 100% 29.98 in 5.0 mi West 4.6 mph - N/A   Unknown
2:20 AM 51.8 °F 51.8 °F 100% 29.98 in 5.0 mi SW 5.8 mph - N/A   Unknown
2:50 AM 50.0 °F 48.2 °F 94% 29.98 in 1.6 mi WNW 3.5 mph - N/A   Mist
3:20 AM 48.2 °F 48.2 °F 100% 29.98 in 1.2 mi Calm Calm - N/A   Mist
3:50 AM 50.0 °F 50.0 °F 100% 29.98 in 1.6 mi Calm Calm - N/A   Mist
4:20 AM 51.8 °F 51.8 °F 100% 29.98 in 2.8 mi West 3.5 mph - N/A   Mist
4:50 AM 50.0 °F 50.0 °F 100% 29.98 in 3.7 mi WNW 4.6 mph - N/A   Unknown
5:20 AM 50.0 °F 50.0 °F 100% 30.01 in 4.3 mi West 3.5 mph - N/A   Unknown
5:50 AM 50.0 °F 50.0 °F 100% 30.01 in 1.9 mi WSW 3.5 mph - N/A   Mist
6:20 AM 50.0 °F 50.0 °F 100% 30.01 in 1.2 mi Variable 4.6 mph - N/A   Mist
6:50 AM 48.2 °F 48.2 °F 100% 30.01 in 0.1 mi SE 5.8 mph - N/A Fog Fog
7:20 AM 48.2 °F 48.2 °F 100% 30.01 in 0.1 mi Variable 3.5 mph - N/A Fog Fog
7:50 AM 50.0 °F 50.0 °F 100% 30.01 in 1.0 mi Variable 3.5 mph - N/A   Mist
8:20 AM 51.8 °F 51.8 °F 100% 30.01 in 1.6 mi ESE 4.6 mph - N/A   Mostly Cloudy
8:50 AM 53.6 °F 53.6 °F 100% 30.01 in 1.6 mi East 3.5 mph - N/A   Mostly Cloudy
9:20 AM 55.4 °F 55.4 °F 100% 30.01 in 1.7 mi Variable 2.3 mph - N/A   Mostly Cloudy
9:50 AM 55.4 °F 55.4 °F 100% 30.01 in - Variable 3.5 mph - N/A   Mostly Cloudy
10:20 AM 55.4 °F 55.4 °F 100% 30.04 in 3.1 mi East 5.8 mph - N/A   Mostly Cloudy
10:50 AM 55.4 °F 55.4 °F 100% 30.01 in 2.5 mi East 8.1 mph - N/A   Mostly Cloudy
11:20 AM 57.2 °F 57.2 °F 100% 29.98 in 3.7 mi East 9.2 mph - N/A   Mostly Cloudy
11:50 AM 59.0 °F 57.2 °F 94% 29.98 in 3.7 mi ESE 10.4 mph - N/A   Mostly Cloudy
12:20 PM 59.0 °F 57.2 °F 94% 29.98 in 4.3 mi ESE 8.1 mph - N/A   Mostly Cloudy
12:50 PM 60.8 °F 57.2 °F 88% 29.95 in 6.2 mi SE 8.1 mph - N/A   Mostly Cloudy
1:20 PM 60.8 °F 57.2 °F 88% 29.95 in 6.2 mi SE 9.2 mph - N/A   Mostly Cloudy
1:50 PM 60.8 °F 57.2 °F 88% 29.95 in 6.2 mi SE 9.2 mph - N/A   Mostly Cloudy
2:20 PM 60.8 °F 57.2 °F 88% 29.92 in 6.2 mi SE 8.1 mph - N/A   Mostly Cloudy
2:50 PM 59.0 °F 57.2 °F 94% 29.92 in 6.2 mi SE 5.8 mph - N/A   Mostly Cloudy
3:20 PM 59.0 °F 57.2 °F 94% 29.89 in 6.2 mi East 6.9 mph - N/A   Mostly Cloudy
3:50 PM 57.2 °F 57.2 °F 100% 29.86 in 6.2 mi East 10.4 mph - N/A   Mostly Cloudy
4:20 PM 57.2 °F 55.4 °F 94% 29.86 in 6.2 mi East 5.8 mph - N/A   Mostly Cloudy
4:50 PM 57.2 °F 55.4 °F 94% 29.83 in 6.2 mi ENE 6.9 mph - N/A   Mostly Cloudy
5:20 PM 57.2 °F 55.4 °F 94% 29.83 in 5.0 mi ESE 9.2 mph - N/A Rain Light Rain Showers
5:50 PM 57.2 °F 55.4 °F 94% 29.80 in 5.0 mi East 8.1 mph - N/A Rain Light Rain Showers
6:20 PM 57.2 °F 55.4 °F 94% 29.77 in 6.2 mi East 6.9 mph - N/A   Mostly Cloudy
6:50 PM 57.2 °F 55.4 °F 94% 29.77 in 4.3 mi East 8.1 mph - N/A Rain Light Rain Showers
7:20 PM 57.2 °F 55.4 °F 94% 29.74 in 4.3 mi ENE 9.2 mph - N/A Rain Light Rain Showers
7:50 PM 57.2 °F 55.4 °F 94% 29.71 in 5.0 mi NE 10.4 mph - N/A Rain Light Rain Showers
8:20 PM 57.2 °F 55.4 °F 94% 29.68 in 6.2 mi East 10.4 mph - N/A   Mostly Cloudy
8:50 PM 57.2 °F 53.6 °F 88% 29.65 in 6.2 mi East 10.4 mph - N/A   Scattered Clouds
9:20 PM 57.2 °F 53.6 °F 88% 29.62 in 6.2 mi East 11.5 mph - N/A   Scattered Clouds
9:50 PM 57.2 °F 53.6 °F 88% 29.62 in 6.2 mi SE 9.2 mph - N/A   Scattered Clouds
10:20 PM 57.2 °F 53.6 °F 88% 29.59 in 6.2 mi SE 9.2 mph - N/A   Partly Cloudy
10:50 PM 57.2 °F 53.6 °F 88% 29.59 in 6.2 mi SE 10.4 mph - N/A   Scattered Clouds
11:20 PM 59.0 °F 51.8 °F 77% 29.56 in 6.2 mi SSE 10.4 mph - N/A   Scattered Clouds